| time (UTC) | temp F | wind direction | speed MPH | gust MPH | rain 1hr in | rain 24hr in | rain mn in | humidity % | barometer mb |
| 20260504041018 | 40 | 0.0 | 1.0 | 0.00 | 0.00 | 0.00 | 68 | 1011.0 | |
| 20260504040038 | 39 | 0.0 | 0.0 | 0.00 | 0.00 | 0.00 | 70 | 1010.8 | |
| 20260504035019 | 39 | 0.0 | 1.0 | 0.00 | 0.00 | 0.00 | 71 | 1010.7 | |
| 20260504034018 | 38 | 0.0 | 0.0 | 0.00 | 0.00 | 0.00 | 72 | 1010.7 | |
| 20260504033018 | 38 | 0.0 | 0.0 | 0.00 | 0.00 | 0.00 | 73 | 1010.6 | |
| 20260504032018 | 38 | 0.0 | 0.0 | 0.00 | 0.00 | 0.00 | 72 | 1010.6 | |
| 20260504031019 | 39 | 0.0 | 0.0 | 0.00 | 0.00 | 0.00 | 72 | 1010.6 | |
| 20260504030018 | 39 | 0.0 | 0.0 | 0.00 | 0.00 | 0.00 | 72 | 1010.5 | |
| 20260504025019 | 39 | 0.0 | 0.0 | 0.00 | 0.00 | 0.00 | 72 | 1010.4 | |
| 20260504024018 | 39 | 0.0 | 0.0 | 0.00 | 0.00 | 0.00 | 72 | 1010.5 | |
| 20260504023018 | 40 | 0.0 | 0.0 | 0.00 | 0.00 | 0.00 | 71 | 1010.5 | |
| 20260504022018 | 40 | 0.0 | 0.0 | 0.00 | 0.00 | 0.00 | 71 | 1010.5 | |
| 20260504021018 | 40 | 0.0 | 0.0 | 0.00 | 0.00 | 0.00 | 70 | 1010.5 | |
| 20260504020018 | 41 | 0.0 | 0.0 | 0.00 | 0.00 | 0.00 | 69 | 1010.5 | |
| 20260504015018 | 41 | 0.0 | 0.0 | 0.00 | 0.00 | 0.00 | 68 | 1010.5 | |
| 20260504014018 | 41 | 0.0 | 0.0 | 0.00 | 0.00 | 0.00 | 67 | 1010.4 | |
| 20260504013019 | 42 | 0.0 | 0.0 | 0.00 | 0.00 | 0.00 | 66 | 1010.4 | |
| 20260504012018 | 43 | 0.0 | 0.0 | 0.00 | 0.00 | 0.00 | 64 | 1010.2 | |
| 20260504011018 | 43 | 0.0 | 0.0 | 0.00 | 0.00 | 0.00 | 63 | 1010.1 | |
| 20260504010038 | 44 | 225 | 1.0 | 2.0 | 0.00 | 0.00 | 0.00 | 62 | 1010.0 |
| 20260504005018 | 45 | 225 | 1.0 | 2.0 | 0.00 | 0.00 | 0.00 | 59 | 1009.9 |
| 20260504004018 | 46 | 225 | 1.0 | 2.0 | 0.00 | 0.00 | 0.00 | 57 | 1009.8 |
| 20260504003038 | 47 | 225 | 1.0 | 2.0 | 0.00 | 0.00 | 0.00 | 56 | 1009.7 |
| 20260504002018 | 48 | 0.0 | 2.0 | 0.00 | 0.00 | 0.00 | 54 | 1009.6 | |
| 20260504001038 | 48 | 0.0 | 0.0 | 0.00 | 0.00 | 0.00 | 50 | 1009.6 | |
| 20260504000018 | 49 | 225 | 1.0 | 4.0 | 0.00 | 0.00 | 0.00 | 48 | 1009.4 |
| 20260503235018 | 50 | 0.0 | 2.0 | 0.00 | 0.00 | 0.00 | 46 | 1009.4 | |
| 20260503234018 | 50 | 248 | 1.0 | 3.0 | 0.00 | 0.00 | 0.00 | 44 | 1009.4 |
| 20260503233018 | 51 | 270 | 1.0 | 3.0 | 0.00 | 0.00 | 0.00 | 43 | 1009.1 |
| 20260503232058 | 51 | 225 | 1.0 | 2.0 | 0.00 | 0.00 | 0.00 | 43 | 1009.0 |
| 20260503231018 | 51 | 293 | 1.0 | 6.0 | 0.00 | 0.00 | 0.00 | 42 | 1008.9 |
| 20260503230038 | 51 | 293 | 2.0 | 4.0 | 0.00 | 0.00 | 0.00 | 42 | 1008.8 |
| 20260503225018 | 52 | 248 | 2.0 | 8.0 | 0.00 | 0.00 | 0.00 | 41 | 1008.8 |
| 20260503224018 | 52 | 293 | 4.0 | 9.0 | 0.00 | 0.00 | 0.00 | 39 | 1008.7 |
| 20260503223018 | 53 | 270 | 3.0 | 10.0 | 0.00 | 0.00 | 0.00 | 39 | 1008.5 |
| 20260503222018 | 54 | 270 | 3.0 | 8.0 | 0.00 | 0.00 | 0.00 | 39 | 1008.4 |
| 20260503221018 | 53 | 315 | 3.0 | 10.0 | 0.00 | 0.00 | 0.00 | 40 | 1008.4 |
| 20260503220018 | 52 | 315 | 3.0 | 9.0 | 0.00 | 0.00 | 0.00 | 41 | 1008.2 |
| 20260503215018 | 52 | 315 | 3.0 | 11.0 | 0.00 | 0.00 | 0.00 | 41 | 1008.1 |
| 20260503214018 | 52 | 293 | 4.0 | 13.0 | 0.00 | 0.00 | 0.00 | 41 | 1008.1 |
| 20260503213018 | 52 | 315 | 3.0 | 9.0 | 0.00 | 0.00 | 0.00 | 41 | 1007.9 |
| 20260503212118 | 52 | 293 | 3.0 | 9.0 | 0.00 | 0.00 | 0.00 | 42 | 1007.8 |
| 20260503211018 | 52 | 270 | 5.0 | 15.0 | 0.00 | 0.00 | 0.00 | 41 | 1007.7 |
| 20260503210018 | 53 | 293 | 5.0 | 12.0 | 0.00 | 0.00 | 0.00 | 42 | 1007.5 |
| 20260503205018 | 53 | 293 | 3.0 | 10.0 | 0.00 | 0.00 | 0.00 | 42 | 1007.3 |
| 20260503204018 | 53 | 270 | 4.0 | 10.0 | 0.00 | 0.00 | 0.00 | 39 | 1007.1 |
| 20260503203018 | 53 | 293 | 4.0 | 10.0 | 0.00 | 0.00 | 0.00 | 40 | 1007.1 |
| 20260503202018 | 54 | 293 | 4.0 | 12.0 | 0.00 | 0.00 | 0.00 | 39 | 1006.8 |
| 20260503201018 | 55 | 270 | 2.0 | 6.0 | 0.00 | 0.00 | 0.00 | 39 | 1006.7 |
| 20260503200018 | 54 | 270 | 3.0 | 14.0 | 0.00 | 0.00 | 0.00 | 41 | 1006.7 |
| 20260503195017 | 54 | 270 | 4.0 | 10.0 | 0.00 | 0.00 | 0.00 | 41 | 1006.9 |
| 20260503194018 | 54 | 248 | 5.0 | 15.0 | 0.00 | 0.00 | 0.00 | 44 | 1006.7 |
| 20260503193038 | 53 | 293 | 3.0 | 8.0 | 0.00 | 0.00 | 0.00 | 44 | 1006.8 |
| 20260503192017 | 53 | 293 | 4.0 | 9.0 | 0.00 | 0.00 | 0.00 | 43 | 1006.9 |
| 20260503191038 | 52 | 338 | 2.0 | 8.0 | 0.00 | 0.00 | 0.00 | 46 | 1006.8 |
| 20260503190017 | 52 | 270 | 3.0 | 6.0 | 0.00 | 0.00 | 0.00 | 46 | 1006.9 |
| 20260503185037 | 53 | 270 | 5.0 | 14.0 | 0.00 | 0.00 | 0.00 | 45 | 1006.9 |
| 20260503184020 | 53 | 315 | 1.0 | 4.0 | 0.00 | 0.00 | 0.00 | 47 | 1006.9 |
| 20260503183020 | 53 | 270 | 3.0 | 9.0 | 0.00 | 0.00 | 0.00 | 45 | 1006.8 |
| 20260503182040 | 53 | 293 | 4.0 | 12.0 | 0.00 | 0.00 | 0.00 | 45 | 1006.9 |
| 20260503181020 | 53 | 293 | 3.0 | 7.0 | 0.00 | 0.00 | 0.00 | 47 | 1006.9 |
| 20260503180019 | 54 | 270 | 1.0 | 4.0 | 0.00 | 0.00 | 0.00 | 47 | 1006.7 |
| 20260503175037 | 55 | 0 | 2.0 | 7.0 | 0.00 | 0.00 | 0.00 | 47 | 1006.6 |
| 20260503174019 | 53 | 315 | 3.0 | 8.0 | 0.00 | 0.00 | 0.00 | 55 | 1006.7 |
| 20260503173019 | 51 | 315 | 3.0 | 8.0 | 0.00 | 0.00 | 0.00 | 52 | 1006.8 |
| 20260503172019 | 51 | 293 | 3.0 | 8.0 | 0.00 | 0.00 | 0.00 | 51 | 1006.8 |
| 20260503171019 | 51 | 293 | 2.0 | 8.0 | 0.00 | 0.00 | 0.00 | 50 | 1006.7 |
| 20260503131019 | 46 | 0 | 2.0 | 6.0 | 0.00 | 0.01 | 0.00 | 74 | 1007.1 |
| 20260503081018 | 43 | 270 | 1.0 | 3.0 | 0.00 | 0.07 | 0.00 | 76 | 1008.7 |
| 20260503072019 | 44 | 315 | 1.0 | 5.0 | 0.00 | 0.07 | 0.00 | 74 | 1009.2 |
| 20260503071018 | 44 | 315 | 1.0 | 3.0 | 0.00 | 0.07 | 0.00 | 73 | 1009.2 |
| 20260503055018 | 45 | 338 | 1.0 | 2.0 | 0.00 | 0.07 | 0.00 | 69 | 1010.1 |
| 20260503054018 | 45 | 248 | 1.0 | 3.0 | 0.00 | 0.07 | 0.00 | 69 | 1010.5 |
| 20260503053018 | 45 | 0.0 | 2.0 | 0.00 | 0.07 | 0.00 | 69 | 1010.1 | |
| 20260503052038 | 46 | 0.0 | 3.0 | 0.00 | 0.07 | 0.00 | 69 | 1010.3 | |
| 20260503051018 | 46 | 0.0 | 2.0 | 0.00 | 0.07 | 0.00 | 68 | 1010.3 | |
| 20260503050018 | 46 | 0.0 | 2.0 | 0.00 | 0.07 | 0.00 | 68 | 1010.5 | |
| 20260503045018 | 46 | 270 | 1.0 | 3.0 | 0.00 | 0.07 | 0.00 | 68 | 1010.6 |
| 20260503044018 | 46 | 293 | 1.0 | 3.0 | 0.00 | 0.07 | 0.00 | 69 | 1010.6 |
| 20260503043038 | 46 | 315 | 1.0 | 2.0 | 0.00 | 0.07 | 0.00 | 70 | 1010.8 |
| 20260503042019 | 46 | 293 | 1.0 | 3.0 | 0.00 | 0.07 | 0.00 | 71 | 1011.0 |